Biloxi, MS

5:54 AM CST on November 22, 2017 (GMT -0600)
Keesler Air Force Base

Weather History for KBIX - May, 2013

Change the Weather History Date:

Tuesday, May 14, 2013

  Actual Average Record
Temperature  
Mean Temperature 68 °F -  
Max Temperature 78 °F 82 °F 88 °F (1959)
Min Temperature 58 °F 65 °F 51 °F (1977)
Cooling Degree Days 3    
Growing Degree Days 18 (Base 50)    
Moisture  
Dew Point 57 °F    
Average Humidity 65    
Maximum Humidity 87    
Minimum Humidity 38    
Precipitation  
Precipitation 0.00 in - - ()
Sea Level Pressure  
Sea Level Pressure 30.24 in    
Wind  
Wind Speed 4 mph (SSW)    
Max Wind Speed 13 mph    
Max Gust Speed -    
Visibility 10 miles    
Events      
Averages and records for this station are not official NWS values.
T = Trace of Precipitation, MM = Missing Value Source: NWS Daily Summary

Daily Weather History Graph

Daily Weather History Graph

Search for Another Location

Airport or City:

Trip Planner

Search our weather history database for the weather conditions in past years. The results will help you decide how hot, cold, wet, or windy it might be!

Date:

Astronomy

May. 14, 2013 Rise Set
Actual Time 6:01 AM CDT 7:42 PM CDT
Civil Twilight 5:35 AM CDT 8:08 PM CDT
Nautical Twilight 5:04 AM CDT 8:40 PM CDT
Astronomical Twilight 4:31 AM CDT 9:13 PM CDT
Moon 9:41 AM CDT (5/14) 11:32 PM CDT (5/14)
Length of Visible Light 14h 33m
Length of Day
13h 40m
Waxing Crescent, 19% of the Moon is Illuminated
May 14
Waxing Crescent
May 17
First Quarter
May 24
Full
May 31
Last Quarter
Jun 8
New

Hourly Weather History & Observations

Time (CDT) Temp. Dew Point Humidity Pressure Visibility Wind Dir Wind Speed Gust Speed Precip Events Conditions
12:58 AM 63.5 °F 56.1 °F 77% 30.23 in 10.0 mi Calm Calm - N/A   Clear
1:58 AM 62.1 °F 55.9 °F 80% 30.23 in 10.0 mi NNW 2.3 mph - N/A   Clear
2:58 AM 60.6 °F 54.0 °F 79% 30.22 in 10.0 mi North 2.3 mph - N/A   Clear
3:58 AM 60.8 °F 54.5 °F 80% 30.23 in 10.0 mi Calm Calm - N/A   Clear
4:58 AM 59.4 °F 53.8 °F 82% 30.23 in 10.0 mi Calm Calm - N/A   Clear
5:58 AM 58.5 °F 54.5 °F 87% 30.25 in 10.0 mi Calm Calm - N/A   Clear
6:58 AM 59.5 °F 55.8 °F 87% 30.27 in 10.0 mi Calm Calm - N/A   Clear
7:58 AM 66.2 °F 57.2 °F 73% 30.27 in 10.0 mi Calm Calm - N/A   Clear
8:58 AM 71.2 °F 57.9 °F 63% 30.29 in 10.0 mi Variable 3.5 mph - N/A   Clear
9:58 AM 75.6 °F 51.1 °F 42% 30.29 in 10.0 mi Calm Calm - N/A   Clear
10:58 AM 77.7 °F 50.4 °F 38% 30.30 in 10.0 mi South 6.9 mph - N/A   Clear
11:58 AM 78.3 °F 53.1 °F 41% 30.30 in 10.0 mi SSW 6.9 mph - N/A   Clear
12:58 PM 77.7 °F 53.6 °F 43% 30.28 in 10.0 mi SSW 9.2 mph - N/A   Clear
1:58 PM 77.9 °F 54.7 °F 45% 30.25 in 10.0 mi South 10.4 mph - N/A   Clear
2:58 PM 77.7 °F 57.7 °F 50% 30.23 in 10.0 mi SSW 11.5 mph - N/A   Clear
3:58 PM 76.6 °F 56.8 °F 50% 30.21 in 10.0 mi South 12.7 mph - N/A   Clear
4:58 PM 76.1 °F 60.1 °F 57% 30.20 in 10.0 mi South 11.5 mph - N/A   Clear
5:58 PM 74.8 °F 59.9 °F 60% 30.19 in 10.0 mi South 9.2 mph - N/A   Clear
6:58 PM 73.2 °F 60.3 °F 64% 30.19 in 10.0 mi South 10.4 mph - N/A   Clear
7:58 PM 71.4 °F 61.7 °F 71% 30.18 in 10.0 mi SSW 9.2 mph - N/A   Clear
8:58 PM 70.7 °F 60.6 °F 70% 30.20 in 10.0 mi SSW 11.5 mph - N/A   Clear
9:58 PM 70.2 °F 60.4 °F 71% 30.21 in 10.0 mi SSW 9.2 mph - N/A   Clear
10:58 PM 69.3 °F 60.1 °F 72% 30.20 in 10.0 mi SW 11.5 mph - N/A   Clear
11:58 PM 69.8 °F 60.3 °F 72% 30.20 in 10.0 mi SSW 9.2 mph - N/A   Clear